TimeEST,TemperatureF,Dew PointF,Humidity,Sea Level PressureIn,VisibilityMPH,Wind Direction,Wind SpeedMPH,Gust SpeedMPH,PrecipitationIn,Events,Conditions,WindDirDegrees,DateUTC
12:56 AM,27.0,19.9,75,30.08,10.0,South,6.9,-,N/A,,Clear,190,2012-12-23 05:56:00
1:56 AM,26.1,19.9,78,30.04,10.0,South,8.1,-,N/A,,Clear,180,2012-12-23 06:56:00
2:56 AM,26.1,19.0,75,30.01,10.0,South,8.1,-,N/A,,Clear,170,2012-12-23 07:56:00
3:56 AM,28.0,19.0,69,29.99,10.0,South,8.1,-,N/A,,Clear,190,2012-12-23 08:56:00
4:56 AM,27.0,19.0,72,29.97,10.0,South,6.9,-,N/A,,Clear,190,2012-12-23 09:56:00
5:56 AM,28.0,19.0,69,29.96,10.0,SSW,8.1,-,N/A,,Clear,200,2012-12-23 10:56:00
6:56 AM,28.0,19.0,69,29.96,10.0,SSW,10.4,-,N/A,,Partly Cloudy,200,2012-12-23 11:56:00
7:56 AM,27.0,19.0,72,29.97,10.0,SW,8.1,-,N/A,,Scattered Clouds,220,2012-12-23 12:56:00
8:56 AM,28.0,19.9,72,29.98,10.0,SW,5.8,-,N/A,,Scattered Clouds,230,2012-12-23 13:56:00
9:56 AM,32.0,21.9,66,29.99,10.0,WSW,10.4,-,N/A,,Partly Cloudy,240,2012-12-23 14:56:00
10:56 AM,36.0,24.1,62,29.99,10.0,West,6.9,-,N/A,,Scattered Clouds,270,2012-12-23 15:56:00
11:56 AM,37.0,25.0,62,29.97,10.0,West,8.1,-,N/A,,Partly Cloudy,260,2012-12-23 16:56:00
12:56 PM,39.0,27.0,62,29.96,10.0,WNW,5.8,-,N/A,,Scattered Clouds,300,2012-12-23 17:56:00
1:56 PM,39.9,27.0,60,29.96,10.0,NW,8.1,-,N/A,,Partly Cloudy,320,2012-12-23 18:56:00
2:56 PM,39.9,28.0,63,29.96,10.0,WNW,4.6,-,N/A,,Scattered Clouds,290,2012-12-23 19:56:00
3:56 PM,39.9,28.0,63,29.97,10.0,WNW,3.5,-,N/A,,Mostly Cloudy,290,2012-12-23 20:56:00
4:56 PM,36.0,28.0,73,29.98,10.0,NW,4.6,-,N/A,,Mostly Cloudy,320,2012-12-23 21:56:00
5:56 PM,34.0,27.0,75,29.99,10.0,North,3.5,-,N/A,,Mostly Cloudy,10,2012-12-23 22:56:00
6:56 PM,32.0,26.1,79,30.00,10.0,North,6.9,-,N/A,,Mostly Cloudy,10,2012-12-23 23:56:00
7:56 PM,30.0,25.0,82,30.01,8.0,North,5.8,-,N/A,,Mostly Cloudy,10,2012-12-24 00:56:00
8:56 PM,30.0,25.0,82,30.02,8.0,NNE,4.6,-,N/A,,Mostly Cloudy,30,2012-12-24 01:56:00
9:56 PM,28.9,24.1,82,30.01,7.0,NE,5.8,-,N/A,,Mostly Cloudy,40,2012-12-24 02:56:00
10:56 PM,28.0,24.1,85,29.99,7.0,ENE,4.6,-,N/A,,Mostly Cloudy,60,2012-12-24 03:56:00
11:56 PM,28.0,23.0,81,29.99,7.0,East,3.5,-,N/A,,Scattered Clouds,100,2012-12-24 04:56:00